Time,TemperatureF,DewpointF,PressureIn,WindDirection,WindDirectionDegrees,WindSpeedMPH,WindSpeedGustMPH,Humidity,HourlyPrecipIn,Conditions,Clouds,dailyrainin,SolarRadiationWatts/m^2,SoftwareType,DateUTC
2013-12-03 00:02:00,48.0,42.0,-100.00,NNW,345,3.0,6.0,80,0.00,,,0.00,0.000000,,2013-12-03 06:02:00,
2013-12-03 00:42:00,49.0,40.0,-100.00,West,260,4.0,7.0,72,0.00,,,0.00,0.000000,,2013-12-03 06:42:00,
2013-12-03 00:53:00,49.0,40.0,-100.00,West,260,4.0,7.0,72,0.00,,,0.00,0.000000,,2013-12-03 06:53:00,
2013-12-03 01:02:00,49.0,40.0,-100.00,West,260,4.0,7.0,72,0.00,,,0.00,0.000000,,2013-12-03 07:02:00,
2013-12-03 01:42:00,52.0,34.0,-100.00,North,350,4.0,6.0,51,0.00,,,0.00,0.000000,,2013-12-03 07:42:00,
2013-12-03 01:52:00,52.0,34.0,-100.00,North,350,4.0,6.0,51,0.00,,,0.00,0.000000,,2013-12-03 07:52:00,
2013-12-03 02:02:00,52.0,34.0,-100.00,North,350,4.0,6.0,51,0.00,,,0.00,0.000000,,2013-12-03 08:02:00,
2013-12-03 02:42:00,53.0,31.0,-100.00,NW,310,5.0,7.0,42,0.00,,,0.00,0.000000,,2013-12-03 08:42:00,
2013-12-03 02:53:00,53.0,31.0,-100.00,NW,310,5.0,7.0,42,0.00,,,0.00,0.000000,,2013-12-03 08:53:00,
2013-12-03 03:01:00,53.0,31.0,-100.00,NW,310,5.0,7.0,42,0.00,,,0.00,0.000000,,2013-12-03 09:01:00,
2013-12-03 03:43:00,52.0,31.0,-100.00,NW,312,5.0,8.0,44,0.00,,,0.00,0.000000,,2013-12-03 09:43:00,
2013-12-03 03:54:00,52.0,31.0,-100.00,NW,312,5.0,8.0,44,0.00,,,0.00,0.000000,,2013-12-03 09:54:00,
2013-12-03 04:03:00,52.0,31.0,-100.00,NW,312,5.0,8.0,44,0.00,,,0.00,0.000000,,2013-12-03 10:03:00,
2013-12-03 04:42:00,51.0,30.0,-100.00,WSW,244,4.0,9.0,45,0.00,,,0.00,0.000000,,2013-12-03 10:42:00,
2013-12-03 04:53:00,51.0,30.0,-100.00,WSW,244,4.0,9.0,45,0.00,,,0.00,0.000000,,2013-12-03 10:53:00,
2013-12-03 05:03:00,51.0,30.0,-100.00,WSW,244,4.0,9.0,45,0.00,,,0.00,0.000000,,2013-12-03 11:03:00,
2013-12-03 05:42:00,51.0,30.0,-100.00,WSW,252,6.0,9.0,45,0.00,,,0.00,0.000000,,2013-12-03 11:42:00,
2013-12-03 05:52:00,51.0,30.0,-100.00,WSW,252,6.0,9.0,45,0.00,,,0.00,0.000000,,2013-12-03 11:52:00,
2013-12-03 06:02:00,51.0,30.0,-100.00,WSW,252,6.0,9.0,45,0.00,,,0.00,0.000000,,2013-12-03 12:02:00,
2013-12-03 06:42:00,52.0,30.0,-100.00,West,275,5.0,12.0,43,0.00,,,0.00,0.000000,,2013-12-03 12:42:00,
2013-12-03 06:52:00,52.0,30.0,-100.00,West,275,5.0,12.0,43,0.00,,,0.00,0.000000,,2013-12-03 12:52:00,
2013-12-03 07:02:00,52.0,30.0,-100.00,West,275,5.0,12.0,43,0.00,,,0.00,0.000000,,2013-12-03 13:02:00,
2013-12-03 07:42:00,50.0,28.0,-100.00,NNE,18,0.0,8.0,43,0.00,,,-99.99,0.000000,,2013-12-03 13:42:00,
2013-12-03 07:52:00,50.0,28.0,-100.00,NNE,18,0.0,8.0,43,0.00,,,-99.99,0.000000,,2013-12-03 13:52:00,
2013-12-03 08:02:00,50.0,28.0,-100.00,NNE,18,0.0,8.0,43,0.00,,,-99.99,0.000000,,2013-12-03 14:02:00,
2013-12-03 08:42:00,53.0,29.0,-100.00,West,279,4.0,7.0,40,0.00,,,0.00,52.000000,,2013-12-03 14:42:00,
2013-12-03 08:52:00,53.0,29.0,-100.00,West,279,4.0,7.0,40,0.00,,,0.00,52.000000,,2013-12-03 14:52:00,
2013-12-03 09:02:00,53.0,29.0,-100.00,West,279,4.0,7.0,40,0.00,,,0.00,52.000000,,2013-12-03 15:02:00,
2013-12-03 09:44:00,61.0,31.0,-100.00,WSW,246,5.0,11.0,32,0.00,,,0.00,250.000000,,2013-12-03 15:44:00,
2013-12-03 09:54:00,61.0,31.0,-100.00,WSW,246,5.0,11.0,32,0.00,,,0.00,250.000000,,2013-12-03 15:54:00,
2013-12-03 10:04:00,61.0,31.0,-100.00,WSW,246,5.0,11.0,32,0.00,,,0.00,250.000000,,2013-12-03 16:04:00,
2013-12-03 10:43:00,67.0,29.0,-100.00,West,268,11.0,18.0,24,0.00,,,0.00,440.000000,,2013-12-03 16:43:00,
2013-12-03 10:52:00,67.0,29.0,-100.00,West,268,11.0,18.0,24,0.00,,,0.00,440.000000,,2013-12-03 16:52:00,
2013-12-03 11:02:00,67.0,29.0,-100.00,West,268,11.0,18.0,24,0.00,,,0.00,440.000000,,2013-12-03 17:02:00,
2013-12-03 11:42:00,71.0,29.0,-100.00,West,260,13.0,20.0,21,0.00,,,0.00,549.000000,,2013-12-03 17:42:00,
2013-12-03 11:53:00,71.0,29.0,-100.00,West,260,13.0,20.0,21,0.00,,,0.00,549.000000,,2013-12-03 17:53:00,
2013-12-03 12:02:00,71.0,29.0,-100.00,West,260,13.0,20.0,21,0.00,,,0.00,549.000000,,2013-12-03 18:02:00,
2013-12-03 12:42:00,75.0,31.0,-100.00,West,259,11.0,20.0,20,0.00,,,0.00,674.000000,,2013-12-03 18:42:00,
2013-12-03 12:53:00,75.0,31.0,-100.00,West,259,11.0,20.0,20,0.00,,,0.00,674.000000,,2013-12-03 18:53:00,
2013-12-03 13:02:00,75.0,31.0,-100.00,West,259,11.0,20.0,20,0.00,,,0.00,674.000000,,2013-12-03 19:02:00,
2013-12-03 13:42:00,80.0,30.0,-100.00,WSW,257,12.0,21.0,16,0.00,,,0.00,731.000000,,2013-12-03 19:42:00,
2013-12-03 13:52:00,80.0,30.0,-100.00,WSW,257,12.0,21.0,16,0.00,,,0.00,731.000000,,2013-12-03 19:52:00,
2013-12-03 14:02:00,80.0,30.0,-100.00,WSW,257,12.0,21.0,16,0.00,,,0.00,731.000000,,2013-12-03 20:02:00,
2013-12-03 14:42:00,81.0,27.0,-100.00,West,276,12.0,19.0,14,0.00,,,0.00,676.000000,,2013-12-03 20:42:00,
2013-12-03 14:53:00,81.0,27.0,-100.00,West,276,12.0,19.0,14,0.00,,,0.00,676.000000,,2013-12-03 20:53:00,
2013-12-03 15:02:00,81.0,27.0,-100.00,West,276,12.0,19.0,14,0.00,,,0.00,676.000000,,2013-12-03 21:02:00,
2013-12-03 15:44:00,82.0,30.0,-100.00,WSW,239,9.0,18.0,15,0.00,,,0.00,488.000000,,2013-12-03 21:44:00,
2013-12-03 15:54:00,82.0,30.0,-100.00,WSW,239,9.0,18.0,15,0.00,,,0.00,488.000000,,2013-12-03 21:54:00,
2013-12-03 16:03:00,82.0,30.0,-100.00,WSW,239,9.0,18.0,15,0.00,,,0.00,488.000000,,2013-12-03 22:03:00,
2013-12-03 16:43:00,79.0,29.0,-100.00,WSW,237,10.0,16.0,16,0.00,,,0.00,278.000000,,2013-12-03 22:43:00,
2013-12-03 16:53:00,79.0,29.0,-100.00,WSW,237,10.0,16.0,16,0.00,,,0.00,278.000000,,2013-12-03 22:53:00,
2013-12-03 17:02:00,79.0,29.0,-100.00,WSW,237,10.0,16.0,16,0.00,,,0.00,278.000000,,2013-12-03 23:02:00,
2013-12-03 17:42:00,75.0,34.0,-100.00,WSW,246,5.0,11.0,22,0.00,,,0.00,110.000000,,2013-12-03 23:42:00,
2013-12-03 17:52:00,75.0,34.0,-100.00,WSW,246,5.0,11.0,22,0.00,,,0.00,110.000000,,2013-12-03 23:52:00,
2013-12-03 18:02:00,75.0,34.0,-100.00,WSW,246,5.0,11.0,22,0.00,,,0.00,110.000000,,2013-12-04 00:02:00,
2013-12-03 18:42:00,70.0,34.0,-100.00,WSW,258,4.0,8.0,26,0.00,,,0.00,9.000000,,2013-12-04 00:42:00,
2013-12-03 18:52:00,70.0,34.0,-100.00,WSW,258,4.0,8.0,26,0.00,,,0.00,9.000000,,2013-12-04 00:52:00,
2013-12-03 19:02:00,70.0,34.0,-100.00,WSW,258,4.0,8.0,26,0.00,,,0.00,9.000000,,2013-12-04 01:02:00,
2013-12-03 19:42:00,65.0,34.0,-100.00,South,186,3.0,6.0,32,0.00,,,0.00,0.000000,,2013-12-04 01:42:00,
2013-12-03 19:52:00,65.0,34.0,-100.00,South,186,3.0,6.0,32,0.00,,,0.00,0.000000,,2013-12-04 01:52:00,
2013-12-03 20:02:00,65.0,34.0,-100.00,South,186,3.0,6.0,32,0.00,,,0.00,0.000000,,2013-12-04 02:02:00,
2013-12-03 20:42:00,62.0,36.0,-100.00,SSW,212,5.0,7.0,38,0.00,,,0.00,0.000000,,2013-12-04 02:42:00,
2013-12-03 20:52:00,62.0,36.0,-100.00,SSW,212,5.0,7.0,38,0.00,,,0.00,0.000000,,2013-12-04 02:52:00,
2013-12-03 21:02:00,62.0,36.0,-100.00,SSW,212,5.0,7.0,38,0.00,,,0.00,0.000000,,2013-12-04 03:02:00,
2013-12-03 21:44:00,61.0,38.0,-100.00,SSW,202,3.0,10.0,42,0.00,,,0.00,0.000000,,2013-12-04 03:44:00,
2013-12-03 21:54:00,61.0,38.0,-100.00,SSW,202,3.0,10.0,42,0.00,,,0.00,0.000000,,2013-12-04 03:54:00,
2013-12-03 22:03:00,61.0,38.0,-100.00,SSW,202,3.0,10.0,42,0.00,,,0.00,0.000000,,2013-12-04 04:03:00,
2013-12-03 22:43:00,61.0,38.0,-100.00,SSW,210,5.0,10.0,43,0.00,,,0.00,0.000000,,2013-12-04 04:43:00,
2013-12-03 22:52:00,61.0,38.0,-100.00,SSW,210,5.0,10.0,43,0.00,,,0.00,0.000000,,2013-12-04 04:52:00,
2013-12-03 23:02:00,61.0,38.0,-100.00,SSW,210,5.0,10.0,43,0.00,,,0.00,0.000000,,2013-12-04 05:02:00,
2013-12-03 23:42:00,63.0,39.0,-100.00,SW,216,8.0,14.0,41,0.00,,,0.00,0.000000,,2013-12-04 05:42:00,
2013-12-03 23:53:00,63.0,39.0,-100.00,SW,216,8.0,14.0,41,0.00,,,0.00,0.000000,,2013-12-04 05:53:00,